Theta_e
305 305 305 306 307 307 308 310 311 312 313 315 317 318 320 323 326 327 329 335 335 331 330 334 345 346 347 347 345 345 350 353 353 348 353 351 351 352 352 352 350 349 345 345 350
304 304 305 305 306 307 308 308 310 311 312 313 316 317 318 320 326 329 330 330 331 331 330 339 345 342 344 340 344 344 345 348 348 347 352 352 352 351 353 352 353 348 345 345 350
304 304 304 305 305 306 307 308 309 310 311 312 314 316 317 319 324 331 331 332 331 331 329 342 339 336 337 336 338 342 344 343 344 346 351 349 352 351 352 353 349 346 345 349 349
304 304 305 305 305 306 307 307 308 309 310 311 313 314 316 317 327 330 329 330 330 331 329 336 339 337 331 335 340 338 343 343 345 346 346 349 350 351 351 353 350 347 344 348 346
304 305 305 305 306 306 307 307 308 309 310 310 311 313 314 318 323 328 328 329 329 329 328 339 339 334 329 331 339 339 341 342 345 345 343 349 350 351 352 352 351 347 346 349 344
304 304 305 305 306 306 307 307 308 308 309 310 310 311 311 316 326 329 329 329 328 328 329 334 335 331 330 330 339 341 340 341 343 341 343 347 349 349 351 350 349 346 345 348 344
304 304 305 305 306 306 307 308 308 308 309 309 310 310 310 318 324 328 328 327 327 329 333 335 332 329 329 327 331 338 341 342 342 342 346 347 350 350 351 350 349 346 345 345 344
304 305 305 306 306 307 307 308 309 308 309 309 309 310 310 317 320 323 324 328 330 332 333 332 329 328 328 329 329 337 342 345 345 345 346 347 353 346 348 350 350 349 348 346 346
304 305 305 305 306 307 308 308 309 310 310 309 309 310 319 317 319 322 325 324 326 326 327 327 328 328 327 326 326 334 345 344 348 342 346 349 351 342 347 349 350 350 349 346 345
304 304 305 306 306 306 308 311 312 314 315 317 312 319 318 320 320 321 323 324 324 325 326 327 328 324 324 325 327 345 347 348 348 343 343 347 348 345 347 349 348 350 349 346 344
304 304 305 306 305 310 312 313 312 317 313 319 318 316 316 319 320 321 321 321 322 323 323 326 325 325 325 326 329 337 345 348 342 338 342 343 348 340 347 347 348 349 349 347 346
305 305 305 306 306 311 312 310 310 309 311 312 313 313 317 317 316 319 321 322 321 320 321 321 323 326 328 328 329 330 343 345 343 341 344 343 346 341 346 347 348 349 348 348 348
306 305 305 306 306 312 312 311 310 310 311 313 313 313 314 314 314 317 320 321 321 321 321 321 323 326 328 328 329 329 337 342 344 342 341 342 343 350 349 348 348 349 349 349 348
306 306 305 305 311 311 312 310 310 310 311 315 315 315 315 315 314 316 319 320 321 321 322 322 323 325 326 328 328 327 336 337 338 342 348 343 349 356 352 350 348 348 349 349 349
306 306 306 304 307 312 313 310 310 310 316 316 317 318 316 315 316 316 317 318 317 319 321 322 323 323 324 327 329 328 329 334 337 338 339 340 341 354 353 353 349 347 348 349 349
307 307 306 304 305 310 310 309 310 311 315 316 318 317 317 317 316 317 317 317 318 318 320 322 324 323 323 326 328 329 329 328 329 331 337 336 334 340 358 354 350 347 348 348 349
308 309 305 305 306 310 309 310 311 311 315 316 316 316 316 317 317 317 316 315 314 315 318 322 323 324 324 323 325 328 326 327 329 332 338 335 336 345 349 352 352 352 348 348 347
308 309 307 309 308 308 309 310 312 315 315 315 316 316 317 316 317 318 316 315 316 316 319 321 321 323 324 323 324 325 326 327 330 335 336 341 347 351 346 344 349 348 346 348 348
308 308 307 310 311 309 309 310 313 314 315 314 313 316 317 318 317 317 317 316 317 317 316 319 322 324 325 325 324 325 326 326 326 328 333 347 346 344 341 343 343 343 343 347 348
307 311 311 311 310 309 309 310 311 312 312 313 312 315 315 315 315 315 316 320 319 319 318 318 319 322 324 325 325 324 326 326 326 328 332 348 348 343 344 342 342 342 342 343 348
309 312 311 310 309 309 309 310 312 312 313 312 311 311 312 313 313 315 317 319 320 319 318 318 318 319 322 323 324 324 324 324 325 327 330 345 346 341 342 342 342 341 343 344 347
309 312 311 311 311 311 310 311 312 312 312 312 311 311 310 311 312 315 317 318 320 319 321 320 321 319 320 322 324 325 324 324 326 329 329 331 342 340 339 341 341 339 343 345 345
309 313 313 311 310 311 311 313 313 313 313 312 312 312 311 311 311 314 315 316 318 318 319 317 320 322 322 321 322 324 325 325 325 327 328 335 335 340 338 340 342 341 341 346 344
308 314 313 311 311 311 311 312 312 312 312 311 311 311 312 312 311 312 313 315 316 317 318 319 318 322 324 324 325 328 325 325 325 326 327 329 340 340 340 340 340 342 346 347 344
311 313 311 312 312 311 312 312 311 311 312 312 311 310 311 311 312 312 314 316 317 318 319 319 321 322 323 325 326 327 327 325 325 327 327 329 339 338 340 341 343 343 348 347 344
308 310 309 310 310 311 311 310 310 309 310 312 313 313 312 313 313 314 314 314 316 316 317 318 322 324 327 326 326 327 328 328 325 326 327 329 343 341 339 339 341 345 346 349 345
309 309 308 309 309 310 311 312 311 312 312 311 311 312 312 312 312 311 312 313 312 314 315 317 318 320 327 328 328 328 328 329 327 326 327 328 340 343 342 343 344 338 344 346 346
Wind_Speed
13 13 14 14 14 14 15 15 15 15 16 15 15 15 16 16 14 14 14 7 7 13 13 7 8 10 13 21 17 16 4 1 7 7 13 15 14 21 20 22 12 16 25 41 34
14 14 14 14 15 15 15 15 16 15 16 16 16 15 16 17 17 15 14 14 11 12 12 6 12 17 21 23 14 5 4 5 8 6 12 21 23 21 16 21 9 19 23 45 32
17 17 16 16 15 15 15 15 15 16 16 16 16 15 14 15 15 12 13 13 11 9 9 9 12 19 25 27 5 11 6 7 14 12 25 20 26 25 24 15 30 35 40 36 29
18 18 18 18 18 17 16 16 14 14 16 16 16 15 13 10 2 2 5 4 10 9 10 9 15 22 10 8 20 4 20 18 14 14 20 19 21 14 20 21 30 36 44 36 32
18 19 19 19 19 18 18 17 15 13 13 16 15 15 11 6 19 15 17 12 10 10 10 8 20 21 8 13 8 3 2 11 31 22 12 26 17 14 20 26 34 36 39 31 33
20 20 20 21 20 19 18 17 16 14 11 13 13 13 9 7 13 6 10 12 10 10 9 10 19 21 15 15 5 8 12 11 20 11 17 20 7 18 22 36 36 35 34 31 31
20 21 22 22 22 21 19 17 16 15 12 11 10 12 13 27 4 12 8 15 12 13 14 18 20 18 20 10 15 2 4 9 9 13 19 24 6 4 30 35 36 36 34 31 32
23 22 23 23 22 22 19 16 15 14 12 11 10 10 13 24 22 26 16 20 14 14 16 18 18 18 13 20 20 3 4 3 4 9 9 10 3 10 25 36 32 33 32 32 30
23 25 25 25 23 22 20 18 12 11 10 10 8 7 12 7 14 26 23 18 17 17 20 18 17 16 17 7 8 2 1 3 11 3 2 4 3 14 20 33 32 34 34 35 31
26 26 24 23 23 20 20 17 8 10 6 8 9 8 18 13 16 17 27 23 25 25 24 21 19 5 4 3 7 2 6 1 5 8 13 8 8 7 22 30 29 32 37 37 34
26 27 27 23 17 15 22 14 10 3 9 12 16 12 30 18 11 13 20 23 25 24 9 21 7 9 12 11 15 3 7 8 6 18 14 12 9 11 24 22 27 28 37 36 37
25 26 25 22 10 12 14 13 10 11 15 23 27 31 33 29 19 18 15 14 24 16 11 10 15 15 13 15 17 12 10 4 6 12 7 19 12 17 18 24 31 30 34 36 36
23 24 24 20 7 8 8 9 11 13 6 24 31 27 34 30 29 28 17 21 10 10 17 17 18 17 18 16 18 16 9 10 11 6 14 14 14 15 20 21 27 29 31 36 40
22 24 22 21 2 9 9 14 13 10 3 8 8 11 24 25 16 31 28 22 15 18 14 13 18 19 21 19 15 16 14 14 18 8 13 11 4 21 20 18 20 29 30 39 39
19 20 19 11 13 4 13 18 13 8 4 8 2 2 10 29 5 26 34 30 16 16 10 16 20 17 24 21 18 17 19 18 18 14 13 13 6 11 22 21 22 26 33 30 40
18 18 20 9 15 7 14 17 10 2 7 6 4 4 4 12 26 28 28 36 24 17 18 18 27 19 22 18 22 17 18 17 14 10 9 10 6 5 21 28 20 24 34 38 35
18 16 15 14 9 5 12 15 2 4 8 6 11 14 8 9 12 15 17 17 16 11 16 15 20 21 20 20 19 19 12 8 5 5 6 10 5 3 6 17 23 18 33 41 41
19 18 9 10 6 4 11 3 4 8 8 16 16 22 17 10 11 13 14 14 19 20 5 10 15 20 13 12 19 16 13 7 7 6 8 5 1 1 12 27 37 43 37 41 44
21 17 15 5 4 3 7 4 4 3 10 16 17 12 14 5 5 6 13 12 14 18 18 7 16 15 19 20 15 19 13 11 8 15 5 4 2 5 3 9 18 17 22 35 46
23 19 5 3 6 4 3 4 7 18 20 16 12 7 13 14 14 10 9 7 18 19 19 18 14 14 23 16 22 11 11 8 7 11 9 3 5 6 11 15 12 6 20 25 47
13 10 10 6 1 6 4 8 15 22 19 5 6 10 14 15 17 16 8 14 12 15 8 17 15 21 12 10 16 15 13 10 4 6 6 4 6 8 12 10 11 12 25 36 48
6 3 12 5 4 7 7 13 17 16 16 3 4 8 11 15 17 14 13 11 17 13 7 5 3 13 21 20 20 19 11 13 9 8 5 4 5 4 10 3 4 7 15 45 47
7 11 8 4 3 6 10 6 14 8 11 3 9 10 10 11 8 10 14 20 25 11 4 7 5 3 7 11 16 10 19 10 5 4 9 3 5 2 6 6 4 5 30 27 42
6 3 7 11 14 10 9 8 7 9 9 13 8 11 11 12 9 7 13 13 26 22 14 5 4 4 6 8 5 8 18 17 11 9 8 10 5 7 11 9 6 15 30 43 41
4 4 12 3 7 10 10 8 11 7 3 13 5 9 11 10 13 13 13 12 18 26 21 3 5 7 16 17 15 15 16 22 13 14 11 12 8 10 10 14 10 4 7 31 36
5 7 13 15 17 13 9 7 10 12 9 1 6 24 6 3 7 12 11 9 4 13 15 14 5 12 15 13 14 18 17 16 21 17 8 12 3 6 10 4 11 18 13 17 38
7 8 7 9 9 8 7 11 9 9 8 10 5 7 9 12 14 16 18 19 12 9 10 7 9 8 5 8 10 9 7 11 12 17 7 13 9 13 6 8 17 30 34 22 37
Wind_Direction
348 344 339 336 332 327 323 319 317 315 313 309 305 306 306 306 303 297 285 278 289 307 309 315 280 258 250 241 219 151 84 333 295 152 138 241 142 151 153 144 169 183 156 157 152
347 341 338 335 331 328 324 321 315 312 311 308 303 302 307 310 307 288 272 270 264 295 301 279 296 295 253 263 182 177 139 198 239 120 150 167 140 156 132 160 146 107 144 151 150
346 342 338 334 332 327 324 321 317 312 309 306 303 301 304 311 317 294 262 256 263 284 283 261 294 285 283 288 247 240 147 173 274 159 162 177 151 140 146 141 140 137 144 152 153
347 343 339 336 332 327 323 319 316 314 309 304 301 300 301 302 279 11 2 283 274 267 256 277 293 290 280 321 23 348 146 199 235 140 145 109 115 110 132 143 152 149 156 152 162
349 344 339 336 332 327 322 316 313 311 308 303 301 298 301 280 250 285 289 290 302 263 261 292 296 303 337 345 258 49 44 220 115 113 131 107 117 124 133 133 140 147 150 158 164
348 344 340 336 334 330 323 316 309 306 303 297 299 295 286 255 256 234 274 275 278 257 274 280 282 319 343 346 11 312 357 304 120 124 133 96 74 128 153 138 141 150 162 164 168
346 343 340 337 335 330 324 317 308 300 295 290 287 285 257 243 209 238 259 280 256 243 259 274 296 337 329 323 306 17 360 348 116 146 113 105 70 80 147 142 150 160 169 169 177
345 344 340 337 336 333 327 316 306 297 292 282 280 270 254 260 253 245 235 237 257 262 266 280 296 305 298 296 295 297 82 54 310 104 154 119 204 234 162 149 157 162 167 174 177
343 343 342 339 338 335 334 319 296 299 299 277 270 245 267 276 241 237 223 225 235 251 257 265 275 284 294 306 316 31 103 310 293 204 13 104 203 241 180 158 162 170 170 175 183
343 342 341 340 340 346 347 327 311 292 297 286 224 281 256 229 247 239 225 227 243 251 264 261 257 268 282 282 258 153 126 34 271 317 339 261 222 235 208 164 172 175 174 177 183
340 339 339 343 347 8 8 24 7 41 314 266 282 239 289 289 300 241 219 221 235 247 234 245 244 228 236 246 260 142 123 148 206 287 312 281 233 211 189 172 170 187 175 177 178
337 337 337 340 356 25 22 39 10 328 300 284 267 260 258 267 284 274 221 243 217 221 226 248 243 244 232 251 263 272 134 218 296 257 253 273 263 186 192 186 178 189 177 175 175
336 335 338 338 331 11 7 14 355 338 267 288 258 242 240 244 246 254 226 241 235 237 216 220 230 239 247 241 254 264 160 170 212 112 304 307 292 189 208 182 181 192 183 179 181
334 333 340 336 53 360 36 350 344 336 293 267 239 255 231 224 233 234 240 245 227 240 228 238 239 232 238 240 236 257 198 200 235 168 227 149 228 193 187 186 178 186 201 184 184
329 330 332 336 324 335 349 338 332 317 317 285 337 91 202 205 196 221 226 241 245 250 212 238 230 230 239 243 235 245 260 232 236 206 256 240 212 213 176 186 181 179 193 195 188
326 327 317 314 287 342 338 319 318 224 244 274 340 203 195 203 221 241 220 221 237 249 256 237 252 228 239 244 246 252 247 260 268 250 233 253 191 203 180 192 171 181 188 197 192
321 319 303 302 283 269 354 327 245 234 321 287 329 342 245 218 228 221 236 210 209 218 243 244 248 256 248 236 247 242 248 253 289 281 219 245 278 319 122 152 143 177 200 193 194
320 316 286 306 308 14 326 303 253 277 286 350 345 330 313 216 234 219 229 236 205 221 232 221 241 243 238 218 227 242 228 208 227 232 243 70 211 223 139 145 166 180 182 194 190
324 323 289 199 73 343 284 250 247 268 323 341 326 314 311 320 314 312 233 235 247 203 220 234 228 246 238 241 233 238 243 220 221 258 280 124 350 4 204 166 202 215 203 187 192
334 336 360 145 180 240 254 260 294 307 303 304 310 316 323 325 317 298 290 224 234 240 210 237 265 249 244 236 243 223 222 246 233 237 252 209 188 197 195 187 226 227 246 222 189
338 321 136 129 197 241 243 261 287 288 308 275 320 315 318 315 325 326 291 330 23 341 311 219 228 259 270 258 230 237 239 229 215 177 215 175 253 206 189 226 179 213 248 208 182
316 279 176 193 267 238 246 253 259 276 297 352 333 288 285 300 309 317 309 334 358 354 4 10 295 231 249 259 272 233 226 214 222 273 236 205 256 121 146 205 267 134 38 192 184
311 281 263 180 257 250 273 285 320 332 329 290 292 296 299 289 303 294 320 309 359 353 41 348 323 284 294 275 260 262 227 220 201 195 246 183 240 190 111 65 49 42 336 212 181
313 286 239 208 253 271 292 283 285 265 306 303 312 315 311 305 279 276 305 302 333 327 336 318 240 275 272 271 285 303 218 220 204 230 247 252 217 213 147 125 14 7 323 184 176
272 309 13 312 329 328 314 337 322 303 198 310 284 247 268 297 304 305 6 349 340 2 344 318 260 282 283 281 300 290 291 209 217 221 223 251 170 214 179 150 153 78 316 172 165
299 346 334 307 304 304 300 280 276 275 315 60 14 315 10 60 346 354 2 354 336 338 343 345 316 325 299 295 297 298 297 304 217 229 239 249 58 131 108 164 104 55 317 219 167
317 297 317 295 301 299 287 350 292 357 313 276 147 285 332 7 337 331 317 302 298 312 326 326 350 337 276 350 321 297 258 277 277 213 203 241 169 161 170 145 111 71 271 264 174